VK6ADF Weather Reports


time (UTC)temp
C
wind
direction
speed
KPH
gust
KPH
rain 1hr
cm
rain 24hr
cm
rain mn
cm
humidity
%
barometer
mb
20260510000034 15 333 4.8 8.0 0.00 0.00 0.00 50 1024.3
20260509234539 13 217 3.2 6.4 0.00 0.00 0.00 52 1024.2
20260509233030 13 340 3.2 6.4 0.00 0.00 0.00 53 1024.0
20260509231528 12 323 4.8 8.0 0.00 0.00 0.00 53 1023.6
20260509230028 13 252 4.8 11.3 0.00 0.00 0.00 52 1023.5
20260509224540 13 216 1.6 9.7 0.00 0.00 0.00 51 1023.6
20260509223029 13 219 4.8 8.0 0.00 0.00 0.00 50 1023.5
20260509221531 13 232 3.2 8.0 0.00 0.00 0.00 51 1023.6
20260509220030 12 200 1.6 4.8 0.00 0.00 0.00 52 1023.5
20260509214531 12 0 0.0 0.0 0.00 0.00 0.00 51 1023.5
20260509213030 12 194 0.0 3.2 0.00 0.00 0.00 51 1023.4
20260509211529 13 0 0.0 3.2 0.00 0.00 0.00 50 1023.3
20260509210030 13 215 1.6 4.8 0.00 0.00 0.00 50 1023.1
20260509204529 12 186 1.6 3.2 0.00 0.00 0.00 52 1022.9
20260509203034 12 186 0.0 3.2 0.00 0.00 0.00 52 1022.8
20260509201529 12 0 0.0 0.0 0.00 0.00 0.00 51 1022.9
20260509200028 13 0 0.0 3.2 0.00 0.00 0.00 49 1022.9
20260509194529 13 186 1.6 6.4 0.00 0.00 0.00 48 1022.8
20260509193029 13 183 1.6 4.8 0.00 0.00 0.00 49 1022.7
20260509191532 13 175 3.2 8.0 0.00 0.00 0.00 49 1022.7
20260509190030 12 211 4.8 6.4 0.00 0.00 0.00 49 1022.8
20260509184542 13 329 1.6 6.4 0.00 0.00 0.00 48 1023.0
20260509183027 13 330 3.2 6.4 0.00 0.00 0.00 47 1023.0
20260509181529 13 318 3.2 9.7 0.00 0.00 0.00 47 1022.9
20260509180039 13 316 3.2 9.7 0.00 0.00 0.00 46 1023.1
20260509174530 13 315 3.2 6.4 0.00 0.00 0.00 46 1023.2
20260509173037 13 190 1.6 8.0 0.00 0.00 0.00 46 1023.2
20260509171528 13 327 3.2 6.4 0.00 0.00 0.00 48 1023.1
20260509170045 11 171 0.0 3.2 0.00 0.00 0.00 52 1023.2
20260509164531 11 0 0.0 0.0 0.00 0.00 0.00 52 1023.1
20260509163027 11 0 0.0 0.0 0.00 0.00 0.00 51 1023.0
20260509161527 11 0 0.0 0.0 0.00 0.00 0.00 49 1023.0
20260509160028 12 0 0.0 0.0 0.00 0.00 0.00 47 1023.0
20260509154531 13 0 0.0 1.6 0.00 0.00 0.00 45 1023.1
20260509153032 14 0 0.0 3.2 0.00 0.00 0.00 43 1023.4
20260509151528 14 172 1.6 4.8 0.00 0.00 0.00 43 1023.5
20260509150030 15 172 1.6 3.2 0.00 0.00 0.00 43 1023.5
20260509144532 14 171 1.6 6.4 0.00 0.00 0.00 43 1023.6
20260509143030 13 0 0.0 0.0 0.00 0.00 0.00 44 1023.8
20260509141539 15 0 0.0 1.6 0.00 0.00 0.00 42 1023.9
20260509140028 15 0 0.0 1.6 0.00 0.00 0.00 40 1023.9
20260509134532 16 171 1.6 6.4 0.00 0.00 0.00 39 1023.8
20260509133428 16 171 1.6 6.4 0.00 0.00 0.00 39 1023.8
20260509131608 16 171 0.0 6.4 0.00 0.00 0.00 39 1023.7
20260509131538 16 171 0.0 6.4 0.00 0.00 0.00 39 1023.7
20260509130041 16 171 0.0 3.2 0.00 0.00 0.00 39 1023.5
20260509124530 16 171 0.0 1.6 0.00 0.00 0.00 38 1023.1
20260509123032 17 0 0.0 3.2 0.00 0.00 0.00 38 1023.1
20260509121531 17 171 1.6 4.8 0.00 0.00 0.00 37 1023.1
20260509120028 18 172 1.6 6.4 0.00 0.00 0.00 36 1022.9
20260509114534 19 220 3.2 6.4 0.00 0.00 0.00 35 1022.9
20260509113030 19 244 4.8 6.4 0.00 0.00 0.00 34 1022.8
20260509111530 20 211 3.2 4.8 0.00 0.00 0.00 34 1022.8
20260509110028 20 211 1.6 4.8 0.00 0.00 0.00 35 1022.5
20260509104528 19 194 1.6 3.2 0.00 0.00 0.00 36 1022.5
20260509103028 18 0 0.0 0.0 0.00 0.00 0.00 41 1022.5
20260509101533 20 0 0.0 0.0 0.00 0.00 0.00 50 1022.4
20260509100033 21 0 0.0 0.0 0.00 0.00 0.00 44 1022.4
20260509094533 23 0 0.0 0.0 0.00 0.00 0.00 30 1022.3
20260509093030 23 167 3.2 6.4 0.00 0.00 0.00 29 1022.1
20260509091530 24 165 3.2 8.0 0.00 0.00 0.00 28 1022.1
20260509090040 25 161 3.2 8.0 0.00 0.00 0.00 28 1022.1
20260509084530 25 332 4.8 11.3 0.00 0.00 0.00 28 1022.0
20260509083030 25 179 4.8 14.5 0.00 0.00 0.00 28 1022.1
20260509081546 25 163 3.2 9.7 0.00 0.00 0.00 27 1021.9
20260509080311 26 189 3.2 9.7 0.00 0.00 0.00 28 1021.8
20260509070040 27 309 3.2 16.1 0.00 0.00 0.00 26 1021.6
20260509064533 27 155 4.8 16.1 0.00 0.00 0.00 26 1021.6
20260509063052 27 53 8.0 14.5 0.00 0.00 0.00 25 1021.4
20260509061545 28 49 9.7 19.3 0.00 0.00 0.00 25 1021.3
20260509060047 27 225 8.0 17.7 0.00 0.00 0.00 25 1021.4
20260509054530 28 315 6.4 12.9 0.00 0.00 0.00 25 1021.5
20260509053032 27 205 3.2 19.3 0.00 0.00 0.00 26 1021.6
20260509051530 28 331 6.4 9.7 0.00 0.00 0.00 26 1021.6
20260509050032 27 317 4.8 14.5 0.00 0.00 0.00 26 1021.8
20260509044530 27 323 4.8 14.5 0.00 0.00 0.00 27 1022.0
20260509043033 27 184 4.8 14.5 0.00 0.00 0.00 28 1022.1
20260509041528 26 321 9.7 17.7 0.00 0.00 0.00 29 1022.5
20260509040032 26 345 9.7 20.9 0.00 0.00 0.00 30 1022.7
20260509034530 25 323 11.3 24.1 0.00 0.00 0.00 30 1023.0
20260509033028 25 201 8.0 19.3 0.00 0.00 0.00 31 1023.3
20260509031534 24 311 11.3 22.5 0.00 0.00 0.00 32 1023.7
20260509030029 23 316 11.3 20.9 0.00 0.00 0.00 33 1023.9
20260509024530 23 312 11.3 22.5 0.00 0.00 0.00 34 1024.1
20260509023028 22 306 8.0 19.3 0.00 0.00 0.00 35 1024.3
20260509021528 22 340 11.3 22.5 0.00 0.00 0.00 36 1024.4
20260509020046 21 300 11.3 25.7 0.00 0.00 0.00 37 1024.7
20260509014542 21 307 12.9 29.0 0.00 0.00 0.00 38 1024.7
20260509013036 20 321 14.5 22.5 0.00 0.00 0.00 39 1024.8
20260509011530 20 289 8.0 19.3 0.00 0.00 0.00 41 1025.0
20260509010027 19 347 9.7 24.1 0.00 0.00 0.00 42 1025.1
20260509004528 18 333 12.9 29.0 0.00 0.00 0.00 44 1025.1
20260509003039 17 324 11.3 20.9 0.00 0.00 0.00 47 1025.2
20260509001528 16 355 11.3 25.7 0.00 0.00 0.00 48 1025.2